User: anonymous   Login
Location: Lawrence Hall of Science
(37.8785°N, 122.2415°W)
Time: 16:57:13
(UTC-07:00)
Language:

ARGOS - Orbit

View from above orbital plane
View from above orbital plane
View from above satellite
View from above satellite

Ground track
Ground track

The orbit data is extracted from the following two-line orbital elements,

1 25634U 99008A   14294.28539309  .00000111  00000-0  73928-4 0  2961
2 25634 098.7469 000.2909 0011264 119.9946 281.6191 14.19178540810892
Epoch (UTC): 21 October 2014 06:50:57
Eccentricity: 0.0011264
inclination: 98.7469°
perigee height: 820 km
apogee height: 836 km
right ascension of ascending node: 0.2909°
argument of perigee: 119.9946°
revolutions per day: 14.19178540
mean anomaly at epoch: 281.6191°
orbit number at epoch: 81089

The dashed part of the orbit path shows where the satellite is in the earth's shadow,  

DLR